Torna al catalogo

STARLINK-36511

AttivoComunicazioniVLEO
NORAD 67451·PAYLOAD·🇺🇸 United States

Lanciato Jan 14, 2026 da Cape Canaveral Space Force Station

Loading…

Prossimi Passaggi (prossime 24 ore)

TLE

AggiornatoSource: CelesTrak SupGP

Epoca: Sep 15, 2026, 02:51 UTC

1 67451C 26008G   26258.11923611 -.00069389  00000+0 -25122-2 0  2584
2 67451  43.0022 215.7682 0001397 275.1450 284.7235 15.27626559    11

Traccia STARLINK-36511 in tempo reale con AllMySat

Download on the App Store